• In Austria
  • List of Countries
  • For 7 days
  • Water Temperature
  • Satellite Maps
  • Weather Map
  • News
  • Weather Widgets
  • user-avatar
    Login

    Hourly Weather Pleven

    Today, 15 October, Monday

    Time Temperature Precipitation Wind Pressure Humidity
    00:00 +12°C° 0 mm 1 mps 752 mmHg 66%
    01:00 +12°C° 0 mm 1 mps 752 mmHg 68%
    02:00 +11°C° 0 mm 1 mps 752 mmHg 70%
    03:00 +11°C° 0 mm 1 mps 752 mmHg 72%
    04:00 +10°C° 0 mm 1 mps 752 mmHg 75%
    05:00 +10°C° 0 mm 1 mps 752 mmHg 77%
    06:00 +11°C° 0 mm 1 mps 752 mmHg 74%
    07:00 +11°C° 0 mm 1 mps 752 mmHg 71%
    08:00 +12°C° 0 mm 1 mps 752 mmHg 66%
    09:00 +14°C° 0 mm 1 mps 752 mmHg 60%
    10:00 +16°C° 0 mm 2 mps 752 mmHg 54%
    11:00 +18°C° 0 mm 3 mps 752 mmHg 47%
    12:00 +19°C° 0 mm 3 mps 751 mmHg 44%
    13:00 +20°C° 0 mm 3 mps 751 mmHg 41%
    14:00 +21°C° 0 mm 4 mps 751 mmHg 37%
    15:00 +21°C° 0 mm 3 mps 751 mmHg 40%
    16:00 +20°C° 0 mm 3 mps 750 mmHg 42%
    17:00 +19°C° 0 mm 2 mps 750 mmHg 44%
    18:00 +18°C° 0 mm 2 mps 750 mmHg 48%
    19:00 +17°C° 0 mm 2 mps 750 mmHg 52%
    20:00 +15°C° 0 mm 2 mps 751 mmHg 56%
    21:00 +15°C° 0 mm 1 mps 751 mmHg 57%
    22:00 +14°C° 0 mm 1 mps 751 mmHg 58%
    23:00 +14°C° 0 mm 1 mps 751 mmHg 59%

    Tomorrow, 16 October, Tuesday

    Time Temperature Precipitation Wind Pressure Humidity
    00:00 +14°C° 0 mm 1 mps 751 mmHg 61%
    01:00 +13°C° 0 mm 1 mps 751 mmHg 62%
    02:00 +13°C° 0 mm 1 mps 751 mmHg 64%
    03:00 +12°C° 0 mm 1 mps 751 mmHg 66%
    04:00 +12°C° 0 mm 1 mps 751 mmHg 68%
    05:00 +11°C° 0 mm 0 mps 751 mmHg 70%
    06:00 +11°C° 0 mm 0 mps 751 mmHg 67%
    07:00 +12°C° 0 mm 0 mps 751 mmHg 64%
    08:00 +13°C° 0 mm 0 mps 751 mmHg 62%
    09:00 +16°C° 0 mm 1 mps 751 mmHg 55%
    10:00 +19°C° 0 mm 1 mps 751 mmHg 48%
    11:00 +19°C° 0 mm 2 mps 751 mmHg 41%
    12:00 +20°C° 0 mm 2 mps 751 mmHg 38%
    13:00 +21°C° 0 mm 2 mps 750 mmHg 35%
    14:00 +23°C° 0 mm 2 mps 750 mmHg 32%
    15:00 +21°C° 0 mm 2 mps 750 mmHg 35%
    16:00 +21°C° 0 mm 2 mps 750 mmHg 38%
    17:00 +21°C° 0 mm 1 mps 749 mmHg 41%
    18:00 +19°C° 0 mm 1 mps 750 mmHg 45%
    19:00 +18°C° 0 mm 1 mps 750 mmHg 49%
    20:00 +15°C° 0 mm 1 mps 750 mmHg 53%
    21:00 +15°C° 0 mm 1 mps 750 mmHg 55%
    22:00 +15°C° 0 mm 1 mps 750 mmHg 56%
    23:00 +14°C° 0 mm 1 mps 750 mmHg 58%

    Day after tomorrow, 17 October, Wednesday

    Time Temperature Precipitation Wind Pressure Humidity
    00:00 +14°C° 0 mm 1 mps 750 mmHg 59%
    01:00 +14°C° 0 mm 1 mps 750 mmHg 60%
    02:00 +13°C° 0 mm 1 mps 750 mmHg 61%
    03:00 +13°C° 0 mm 1 mps 750 mmHg 62%
    04:00 +13°C° 0 mm 1 mps 749 mmHg 64%
    05:00 +12°C° 0 mm 1 mps 749 mmHg 65%
    06:00 +13°C° 0 mm 1 mps 749 mmHg 63%
    07:00 +14°C° 0 mm 1 mps 749 mmHg 61%
    08:00 +14°C° 0 mm 1 mps 750 mmHg 58%
    09:00 +16°C° 0 mm 1 mps 749 mmHg 54%
    10:00 +19°C° 0 mm 1 mps 749 mmHg 49%
    11:00 +21°C° 0 mm 1 mps 749 mmHg 44%
    12:00 +21°C° 0 mm 2 mps 749 mmHg 43%
    13:00 +23°C° 0 mm 2 mps 748 mmHg 43%
    14:00 +24°C° 0 mm 2 mps 748 mmHg 42%
    15:00 +23°C° 0 mm 2 mps 748 mmHg 46%
    16:00 +21°C° 0 mm 2 mps 747 mmHg 49%
    17:00 +21°C° 0 mm 2 mps 747 mmHg 52%
    18:00 +20°C° 0 mm 1 mps 747 mmHg 57%
    19:00 +19°C° 0 mm 1 mps 748 mmHg 63%
    20:00 +16°C° 0 mm 1 mps 748 mmHg 68%
    21:00 +16°C° 0 mm 1 mps 748 mmHg 70%
    22:00 +16°C° 0 mm 1 mps 748 mmHg 71%
    23:00 +15°C° 0 mm 1 mps 748 mmHg 73%

    18 October, Thursday

    Time Temperature Precipitation Wind Pressure Humidity
    00:00 +14°C° 0 mm 0 mps 748 mmHg 75%
    01:00 +14°C° 0 mm 0 mps 748 mmHg 76%
    02:00 +13°C° 0 mm 0 mps 748 mmHg 77%
    03:00 +13°C° 0 mm 0 mps 748 mmHg 79%
    04:00 +13°C° 0 mm 0 mps 748 mmHg 81%
    05:00 +12°C° 0 mm 0 mps 747 mmHg 83%
    06:00 +13°C° 0 mm 0 mps 747 mmHg 81%
    07:00 +14°C° 0 mm 0 mps 748 mmHg 78%
    08:00 +14°C° 0 mm 0 mps 748 mmHg 76%
    09:00 +18°C° 0 mm 1 mps 747 mmHg 69%
    10:00 +20°C° 0 mm 1 mps 747 mmHg 62%
    11:00 +21°C° 0 mm 2 mps 747 mmHg 55%
    12:00 +21°C° 0 mm 2 mps 747 mmHg 52%
    13:00 +23°C° 0 mm 2 mps 746 mmHg 49%
    14:00 +24°C° 0 mm 2 mps 746 mmHg 46%
    15:00 +23°C° 0 mm 2 mps 746 mmHg 49%
    16:00 +21°C° 0 mm 2 mps 746 mmHg 52%
    17:00 +20°C° 0 mm 2 mps 746 mmHg 55%
    18:00 +19°C° 0 mm 2 mps 746 mmHg 60%
    19:00 +19°C° 0 mm 1 mps 746 mmHg 65%
    20:00 +16°C° 0 mm 1 mps 746 mmHg 70%
    21:00 +16°C° 0 mm 1 mps 747 mmHg 71%
    22:00 +16°C° 0 mm 1 mps 747 mmHg 73%
    23:00 +16°C° 0 mm 1 mps 747 mmHg 74%

    19 October, Friday

    Time Temperature Precipitation Wind Pressure Humidity
    00:00 +15°C° 0 mm 1 mps 747 mmHg 75%
    01:00 +15°C° 0 mm 1 mps 747 mmHg 75%
    02:00 +14°C° 0 mm 0 mps 747 mmHg 76%
    03:00 +15°C° 0 mm 1 mps 747 mmHg 77%
    04:00 +15°C° 0 mm 1 mps 747 mmHg 78%
    05:00 +14°C° 0 mm 1 mps 747 mmHg 79%
    06:00 +15°C° 0 mm 1 mps 747 mmHg 76%
    07:00 +15°C° 0 mm 1 mps 747 mmHg 74%
    08:00 +16°C° 0 mm 1 mps 747 mmHg 71%
    09:00 +19°C° 0 mm 1 mps 747 mmHg 65%
    10:00 +21°C° 0 mm 1 mps 747 mmHg 58%
    11:00 +23°C° 0 mm 1 mps 747 mmHg 51%
    12:00 +23°C° 0 mm 1 mps 747 mmHg 49%
    13:00 +24°C° 0 mm 1 mps 746 mmHg 46%
    14:00 +25°C° 0 mm 1 mps 746 mmHg 44%
    15:00 +24°C° 0 mm 1 mps 746 mmHg 46%
    16:00 +23°C° 0 mm 1 mps 746 mmHg 49%
    17:00 +22°C° 0 mm 1 mps 746 mmHg 51%
    18:00 +21°C° 0 mm 1 mps 746 mmHg 55%
    19:00 +20°C° 0 mm 1 mps 746 mmHg 59%
    20:00 +19°C° 0 mm 1 mps 746 mmHg 63%
    21:00 +18°C° 0 mm 1 mps 746 mmHg 65%
    22:00 +18°C° 0 mm 1 mps 746 mmHg 66%
    23:00 +16°C° 0 mm 1 mps 747 mmHg 68%

    20 October, Saturday

    Time Temperature Precipitation Wind Pressure Humidity
    00:00 +16°C° 0 mm 1 mps 746 mmHg 69%
    01:00 +16°C° 0 mm 1 mps 746 mmHg 71%
    02:00 +15°C° 0 mm 1 mps 746 mmHg 72%
    03:00 +15°C° 0 mm 1 mps 746 mmHg 73%
    04:00 +15°C° 0 mm 1 mps 746 mmHg 75%
    05:00 +14°C° 0 mm 1 mps 747 mmHg 76%
    06:00 +15°C° 0 mm 1 mps 747 mmHg 74%
    07:00 +16°C° 0 mm 1 mps 747 mmHg 72%
    08:00 +16°C° 0 mm 2 mps 747 mmHg 69%
    09:00 +18°C° 0 mm 2 mps 747 mmHg 60%
    10:00 +20°C° 0 mm 2 mps 747 mmHg 51%
    11:00 +22°C° 0 mm 3 mps 747 mmHg 42%
    12:00 +24°C° 0 mm 3 mps 747 mmHg 39%
    13:00 +24°C° 0 mm 3 mps 746 mmHg 36%
    14:00 +25°C° 0 mm 4 mps 746 mmHg 34%
    15:00 +24°C° 0 mm 3 mps 746 mmHg 36%
    16:00 +22°C° 0 mm 3 mps 746 mmHg 38%
    17:00 +21°C° 0 mm 2 mps 746 mmHg 40%
    18:00 +20°C° 0 mm 2 mps 746 mmHg 44%
    19:00 +19°C° 0 mm 3 mps 747 mmHg 47%
    20:00 +17°C° 0 mm 3 mps 747 mmHg 50%
    21:00 +17°C° 0 mm 3 mps 747 mmHg 53%
    22:00 +16°C° 0 mm 3 mps 747 mmHg 56%
    23:00 +16°C° 0 mm 3 mps 747 mmHg 58%
    Show more